User: anonymous   Login
Location: Unspecified
(0.0000°N, 0.0000°E)
Time: 02:47:43
(UTC+02:00)
Language:

Cosmos 1733 Rocket - Orbit

View from above orbital plane
View from above orbital plane
View from above satellite
View from above satellite

Ground track
Ground track

The orbit data is extracted from the following two-line orbital elements,

1 16612U 86018B   15109.54784044  .00000576  00000-0  66464-4 0  9999
2 16612 082.5152 317.1794 0016518 236.3103 153.1055 14.83886031474346
Epoch (UTC): 19 April 2015 13:08:53
Eccentricity: 0.0016518
inclination: 82.5152°
perigee height: 605 km
apogee height: 628 km
right ascension of ascending node: 317.1794°
argument of perigee: 236.3103°
revolutions per day: 14.83886031
mean anomaly at epoch: 153.1055°
orbit number at epoch: 47434

The dashed part of the orbit path shows where the satellite is in the earth's shadow,  

DLR